Regional Weather Roundup
Issued by NWS Charleston, SC

Current Version | Previous Version | Text Only | Print | Product List | Glossary Off
Versions: 1 2 3 4 5 6 7 8 9 10 11 12 13 14 15 16 17 18 19 20 21 22 23 24 25 26 27 28 29 30 31 32 33 34 35 36 37 38 39 40 41 42 43 44 45 46 47 48 49 50

000
ASUS42 KCHS 261612
RWRCHS

Regional Weather Roundup
National Weather Service Charleston SC
1200 PM EDT THU APR 26 2018

NOTE: "fair" indicates few or no clouds below 12,000 feet with no
significant weather and/or obstructions to visibility.

Not all stations are quality controlled. Use data with caution,
especially dewpoint observations.

SCZ027-030-031-034>040-042>050-261700-
...Southeast South Carolina...

CITY           SKY/WX    TMP DP  RH WIND       PRES   REMARKS
N Charleston   PTSUNNY   75  55  49 SW13      29.87F
Waterfront Prk NOT AVBL
Mount Pleasant FAIR      73  57  56 S10       29.88F
Johns Island   FAIR      73  57  56 S9G15     29.89S
Pinopolis      NOT AVBL
Moncks Corner  FAIR      73  52  46 S7        29.87S
Summerville    FAIR      73  55  53 SW5       29.88F
Beaufort MCAS  FAIR      73  55  53 S12G17    29.88F
Beaufort Arpt  FAIR      72  55  56 S9        29.88S
Hilton Head Is PTSUNNY   72  57  60 S7        29.90S
Walterboro     FAIR      72  54  53 SW7G17    29.88F
Allendale      FAIR      72  54  53 SW6       29.87S

...Southern Midlands and Pee Dee...

CITY           SKY/WX    TMP DP  RH WIND       PRES   REMARKS
Georgetown     FAIR      73  57  56 S7        29.88F
Kingstree      FAIR      73  55  53 SW6       29.87S
Orangeburg     FAIR      71  55  56 S9        29.87S
Barnwell       FAIR      70  55  60 SW6       29.88S
Aiken          FAIR      68  54  60 SE5       29.91F
Manning        FAIR      68  52  56 S5        29.88R
Columbia       PTSUNNY   72  57  59 CALM      29.87S
Sumter         CLOUDY    74  55  51 SE8       29.85S
Florence       FAIR      73  56  54 CALM      29.87F
Myrtle Beach   FAIR      70  61  73 SE10      29.90R
N Myrtle Beach FAIR      69  59  70 S12       29.89R

$$

GAZ063-065-086>088-099>101-113>116-118-119-134>141-150-261700-
...Southeast Georgia...

CITY           SKY/WX    TMP DP  RH WIND       PRES   REMARKS
Savannah Arpt  PTSUNNY   74  54  49 SW10      29.89S
Hunter AAF     FAIR      74  55  50 SW10      29.86F
Fort Stewart   FAIR      74  54  49 W8        29.87F
Statesboro     FAIR      73  47  40 W12G17    29.89S
Sylvania       FAIR      72  56  57 W5        29.89S
Claxton        FAIR      73  55  53 SW6       29.89F

...CSRA, Central and far Southeast Georgia...

CITY           SKY/WX    TMP DP  RH WIND       PRES   REMARKS
Thomson        FAIR      67  54  63 W8        29.94S
Augusta-Bush   FAIR      70  56  61 SW7       29.88S
Augusta-Daniel FAIR      70  56  61 S9        29.89S
Swainsboro     FAIR      70  54  56 W6        29.91S
Vidalia        FAIR      72  50  46 W7G16     29.91R
Eastman        FAIR      71  40  33 W7        29.94S
Hazlehurst     FAIR      74  51  44 SW8       29.89S
Alma           FAIR      75  54  47 SW8       29.90R
Waycross       FAIR      76  53  44 W10       29.90S
Jesup          NOT AVBL
Baxley         FAIR      72  52  49 SW7       29.90R
Brunswick      FAIR      75  54  46 SW12      29.91S
Saint Simons   FAIR      73  56  54 SE8       29.90S

$$

SCZ027-028-034-036>038-045-046-048>050-GAZ119-141-261700-
...Lake and Supplemental Coastal Observations...

STATION/POSITION TIME  TEMP    WIND        PRES    WAVE   SWELL
                       AIR SEA DIR/SP/G            HT/PER HT/PER/DIR
                 (UTC) (F)     (DEG/KT/KT) (MB)    (FT/S) (FT/S/D)
Winyah Bay       1445   68     120/  5     1012.0
Lake Murray      1520   68     100/  4/  7 1011.2
ACE Basin NERRS  1445   71     350/  2       N/A
Fort Pulaski     1548          210/  8/ 11   N/A
Sapelo Island    1500   72     220/  4     1012.0

$$

ANZ835-935-AMZ111-154-330-350-352-354-370-450-454-472-261700-
...C-MAN and Buoy Observations...

STATION/POSITION TIME  TEMP    WIND        PRES    WAVE   SWELL
                       AIR SEA DIR/SP/G            HT/PER HT/PER/DIR
                 (UTC) (F)     (DEG/KT/KT) (MB)    (FT/S) (FT/S/D)
Buoy 41004       1550      69  220/  8/  8 1012.8R   4/ 9   3/120/ 9
Buoy 41008       1550   66 67  190/  4/  6 1012.6S   2/ 9   2/ 90/ 9
Folly Beach CMAN 1500   66     200/  8/ 10 1012.7
Capers Nearshore 1508   66 66  230/  8/ 10 1012.8R
Fripp Nearshore  1508   65 66  210/  6/  8 1012.2R


STATION/POSITION TIME  TEMP    WIND        PRES    WAVE   SWELL
                       AIR SEA DIR/SP/G            HT/PER HT/PER/DIR
                 (UTC) (F)     (DEG/KT/KT) (MB)    (FT/S) (FT/S/D)
5E St. Marys GA  1600      70                N/A     2/ 9
Frying Pan Buoy  1550   70 70  150/  2/  4 1012.4R   4/ 9   5/100/ 9
Buoy 41025       1550   67 70   50/  4/  6 1013.5R   6/10   7/100/10
Cape Lookout NC  1500          100/  3/  4 1012.6
Buoy 41002       1550   72 73  210/ 12/ 14 1014.0R   6/ 8   5/120/ 8
Buoy 41010       1550   75 76  220/ 12/ 14 1014.4S   5/ 9   5/ 80/ 9
St Augustine FL  1600   68 69  130/  7/  8 1014.1F


$$




USA.gov is the U.S. government's official web portal to all federal, state and local government web resources and services.